Retour au catalogue

STARLINK-32803

ActifCommunicationsVLEO
NORAD 63024·PAYLOAD·🇺🇸 United States

Lancé Feb 15, 2025 depuis Cape Canaveral Space Force Station

Loading…

Prochains Passages (prochaines 24 heures)

TLE

FraisSource: CelesTrak SupGP

Époque: Sep 14, 2026, 21:42 UTC

1 63024C 25032V   26257.90465278 -.00016207  00000+0 -58706-3 0  2573
2 63024  43.0021 347.2468 0001616 267.3774 338.0218 15.27583545    12

Suivez STARLINK-32803 en temps réel avec AllMySat

Download on the App Store